Regional Weather Roundup
Issued by NWS Charleston, WV

Home | Current Version | Previous Version | Text Only | Print | Product List | Glossary Off
Versions: 1 2 3 4 5 6 7 8 9 10 11 12 13 14 15 16 17 18 19 20 21 22 23 24 25 26 27 28 29 30 31 32 33 34 35 36 37 38 39 40 41 42 43 44 45 46 47 48 49 50

000
ASUS41 KRLX 011610
RWRRLX
West Virginia Regional Weather Roundup
National Weather Service Charleston WV
1200 PM EDT SAT AUG 01 2015

Note: "fair" indicates few or no clouds below 12,000 feet with no
significant weather and/or obstructions to visibility.

WVZ003-011700-
Northern Panhandle of West Virginia

CITY           SKY/WX    TMP DP  RH WIND       PRES   REMARKS
WHEELING       MOSUNNY   77  55  46 VRB7      29.97R
$$

WVZ009-011700-
Northwest West Virginia

CITY           SKY/WX    TMP DP  RH WIND       PRES   REMARKS
PARKERSBURG    MOSUNNY   80  54  40 NW9       30.02R
$$

WVZ006-011700-
Western West Virginia

CITY           SKY/WX    TMP DP  RH WIND       PRES   REMARKS
HUNTINGTON     SUNNY     81  55  40 VRB5      30.01S
$$

WVZ015-011700-
West Central West Virginia

CITY           SKY/WX    TMP DP  RH WIND       PRES   REMARKS
CHARLESTON     MOSUNNY   81  57  43 N6        30.01R
$$

WVZ022-031-011700-
North Central West Virginia

CITY           SKY/WX    TMP DP  RH WIND       PRES   REMARKS
CLARKSBURG     MOSUNNY   79  57  46 NW9       29.99R
MORGANTOWN     MOSUNNY   83  52  34 N7        29.99R
$$

WVZ025-035-042-045-011700-
Southern West Virginia

CITY           SKY/WX    TMP DP  RH WIND       PRES   REMARKS
BECKLEY        PTSUNNY   74  54  49 W9        30.08R
LOGAN            N/A     77  63  61 CALM      30.02R
BLUEFIELD      MOSUNNY   76  54  46 W13G18    30.11R
LEWISBURG      MOSUNNY   77  54  44 W6        30.06S
$$

WVZ047-011700-
Northern Mountains of West Virginia

CITY           SKY/WX    TMP DP  RH WIND       PRES   REMARKS
ELKINS         PTSUNNY   76  54  46 VRB6      30.03R
$$

WVZ052-011700-
Eastern Panhandle of West Virginia

CITY           SKY/WX    TMP DP  RH WIND       PRES   REMARKS
MARTINSBURG    MOSUNNY   82  58  43 VRB3      29.92S
PETERSBURG     PTSUNNY  N/A N/A N/A CALM      29.96F
$$


USA.gov is the U.S. government's official web portal to all federal, state and local government web resources and services.